#timestamp,LO_Frequency,Hit,StdDev 
1584957775.7,286046973.1,P
1584957795.5,286046973.7,P
1584957815.4,286046973.5,P
1584957835.2,286046971.3,Y
1584957855.1,286046997.7,P
1584957856.0,286046997.7,N
1584957875.8,286046997.9,N
1584957895.6,286046995.5,N
1584957915.5,286046997.8,N
1584957935.3,286046995.2,N
1584957955.1,286046995.8,N
1584957975.9,286046996.2,N
1584957995.7,286046993.4,N
1584958015.6,286046995.5,N
1584958035.4,286046994.2,N
1584958055.2,286046994.2,N
1584958075.1,286046994.1,N
1584958076.0,286046994.1,N
1584958095.8,286046993.8,N
1584958115.6,286046994.8,N
1584958135.5,286046992.3,N
1584958155.3,286046990.1,N
1584958175.2,286046990.2,N
1584958195.9,286046992.7,N
1584958215.7,286046993.1,N
1584958235.6,286046990.2,N
1584958255.4,286046993.1,N
1584958275.2,286046993.0,N
1584958295.1,286046990.7,N
1584958296.0,286046990.7,N
1584958315.8,286046990.6,N
1584958335.7,286046990.5,N
1584958355.5,286046990.2,N
1584958375.3,286046990.3,N
1584958395.2,286046990.5,Y
1584958415.0,286046996.6,P
1584958415.9,286046996.6,N
1584958435.8,286046999.0,N
1584958455.6,286046998.5,N
1584958475.4,286047001.2,N
1584958495.3,286046998.5,N
1584958515.1,286047001.1,N
1584958535.8,286047000.9,N
1584958555.7,286046998.7,N
1584958575.5,286046998.7,N
1584958595.4,286046998.5,N
1584958615.2,286047000.7,N
1584958635.0,286046998.1,N
1584958635.9,286046998.1,N
1584958655.8,286047001.2,N
1584958675.6,286046999.9,N
1584958695.4,286046999.9,N
1584958715.3,286047000.9,N
1584958735.1,286047001.2,N
1584958755.9,286047000.3,N
1584958775.7,286046999.9,N
1584958795.5,286047002.7,N
1584958815.4,286047000.1,N
1584958835.2,286046998.3,N
1584958855.0,286046998.6,N
1584958856.0,286046998.6,N
1584958875.8,286047001.1,N
1584958895.6,286047000.7,N
1584958915.5,286046999.9,N
1584958935.3,286047000.2,N
1584958955.1,286046999.8,N
1584958975.9,286047000.1,N
1584958995.7,286047001.0,N
1584959015.6,286047001.1,N
1584959035.4,286046999.9,N
1584959055.2,286047000.6,N
1584959075.1,286047001.1,N
1584959076.0,286047001.1,N
1584959095.8,286047001.0,N
1584959115.6,286047000.4,N
1584959135.5,286046998.4,N
1584959155.3,286046998.6,N
1584959175.2,286046998.5,N
1584959195.9,286046996.8,N
1584959215.7,286046997.3,N
1584959235.6,286046997.4,N
1584959255.4,286046997.4,N
1584959275.3,286046994.9,Y
1584959295.1,286046997.2,P
1584959296.0,286046997.2,N
1584959315.8,286046995.3,P
1584959335.7,286046995.1,Y
1584959355.5,286046999.4,P
1584959375.3,286046998.9,N
1584959395.2,286046997.8,N
1584959415.0,286046995.0,Y
1584959415.9,286046995.0,P
1584959435.8,286046996.7,N
1584959455.6,286046995.1,P
1584959475.4,286046997.2,N
1584959495.3,286046997.6,N
1584959515.1,286046996.2,Y
1584959535.9,286046999.3,P
1584959555.7,286046999.3,N
1584959575.5,286046996.5,N
1584959595.4,286046998.0,N
1584959615.2,286046996.2,Y
1584959635.1,286046996.7,P
1584959636.0,286046996.7,P
1584959655.8,286046998.0,P
1584959675.6,286047011.9,Y
1584959695.5,286046998.6,P
1584959715.3,286046999.0,N
1584959735.1,286046996.5,P
1584959755.9,286046997.0,Y
1584959775.7,286047011.9,P
1584959795.6,286047000.8,N
1584959815.4,286046998.3,N
1584959835.2,286046998.3,N
1584959855.1,286047000.4,N
1584959856.0,286047000.4,N
1584959875.8,286047000.6,N
1584959895.7,286047000.5,N
1584959915.5,286047000.2,N
1584959935.3,286046999.9,N
1584959955.2,286047000.3,N
1584959975.9,286047000.6,N
1584959995.7,286046999.8,N
1584960015.6,286047001.8,N
1584960035.4,286047001.5,N
1584960055.3,286047001.7,N
1584960075.1,286047002.4,N
1584960076.0,286047002.4,N
1584960095.8,286047001.8,N
1584960115.7,286047001.4,N
1584960135.5,286047001.7,N
1584960155.3,286047004.0,N
1584960175.2,286047004.2,N
1584960195.0,286047004.2,N
1584960195.9,286047004.2,N
1584960215.8,286047004.4,N
1584960235.6,286047004.4,N
1584960255.4,286047004.1,N
1584960275.3,286047003.1,N
1584960295.1,286047005.6,N
1584960315.8,286047005.5,N
1584960335.7,286047005.7,N
1584960355.5,286047007.5,Y
1584960375.4,286047005.5,P
1584960395.2,286047007.6,P
1584960415.0,286047007.1,P
1584960416.0,286047007.1,Y
1584960435.8,286046999.9,P
1584960455.6,286047000.3,N
1584960475.5,286046999.7,N
1584960495